www.pogodaiklimat.ru

Погода и климат >> Архив погоды >> Россия >> Свердловская область >> Ивдель


АРХИВ ПОГОДЫ в Ивделе

Время (UTC), дата Ветер
(напр.,м/с)
 
Видим.   Явления Облачность Т
(С)
Тd
(С)
f
(%)
Тe
(С)
Тes
(С)
Комфортность P
(гПа)
Po
(гПа)
Тmin
(С)
Tmax
(С)
R
(мм)
R24
(мм)
S
(см)
09 15.04 З 4
{11}
50 км 10/10 600 м
[Cb cap]
+3.0 -5.9 52 -1 -1 1010.6 998.9
12 15.04 З 4
{13}
50 км 9/9 600 м
[Cb cap]
+4.3 -5.0 51 +1 +1 1009.0 997.4
15 15.04 З 4
{11}
50 км 9/8 600 м
[Cb cap Ac trans]
+2.9 -4.2 60 -1 -1 1007.0 995.4 +4.5 0.0
18 15.04 З 2 10 км в посл. час ливневой снег 10/10 600 м
[Cb cap]
+2.3 -2.7 70 -1 -1 1005.9 994.2
21 15.04 СЗ 5
{11}
20 км {ливн. осадки} 9/6 600 м
[Cb cap As trans]
+0.9 -7.7 53 -4 -4 1005.2 993.5
00 16.04 СЗ 5
{12}
20 км {ливн. осадки} 9/8 600 м
[Cb cap Ac trans]
-1.7 -12.0 45 -7 -7 1005.9 994.0
03 16.04 С 4
{12}
50 км 9/6 600 м
[Cb cap Ac trans]
-2.8 -12.0 49 -8 -8 1006.2 994.3 -2.8 0.0
06 16.04 СЗ 4 50 км {ливн. осадки} 9/9 600 м
[Cb cap]
-1.6 -15.4 34 -6 -6 1006.9 995.0 -3.7
09 16.04 С 5-10
{11}
50 км в посл. час ливневой снег 9/9 600 м
[Cb cap]
-2.7 -15.5 37 -8 -8 1009.5 997.6
12 16.04 СЗ 6-14
{14}
45 км слаб. ливневой снег 10/6 600 м
[Cb cap Ac trans Ci fib]
-5.1 -11.7 60 -12 -12 1013.6 1001.5
15 16.04 С 4-10
{14}
4000 м ливневой снег 10/10 600 м
[Cb cap]
-7.9 -10.6 81 -15 -15 1017.5 1005.2 -1.3 0.3
18 16.04 С 6-14
{14}
4200 м слаб. ливневой снег 10/10 600 м
[Cb cap]
-8.6 -14.9 60 -17 -17 1020.3 1008.0
21 16.04 С 5-11
{14}
4200 м слаб. ливневой снег {метель} 10/10 600 м
[Cb cap]
-10.0 -15.1 66 -18 -18 1023.0 1010.5
00 17.04 С 4-10
{12}
20 км {ливн. осадки} 4/1 1000 м
[Sc Ci fib]
-11.6 -19.2 53 -19 -19 1025.9 1013.3
03 17.04 С 4
{11}
50 км 4/3 1000 м
[Sc Ci fib]
-10.1 -19.2 47 -17 -16 1027.6 1015.2 -12.0 0.5
06 17.04 С 4
{13}
50 км 1/0
[Ci fib]
-6.1 -18.2 38 -12 -7 1028.4 1016.1
09 17.04 С 4
{11}
50 км 8/0
[Ci fib]
-2.0 -18.5 27 -7 -2 1028.0 1015.9
12 17.04 СЗ 3 50 км 9/0
[Ac trans Ci fib]
+0.1 -18.5 23 -3 -1 1027.2 1015.2
15 17.04 СЗ 3 50 км 9/0
[Ac trans Ci fib]
-0.7 -19.9 22 -4 -4 1026.1 1014.1 +0.7
18 17.04 СЗ 3 20 км 9/0
[Ci fib]
-3.2 -18.9 29 -7 -7 1026.2 1014.1
21 17.04 З 4 20 км 9/0
[Ci fib]
-3.6 -18.7 30 -9 -9 1024.8 1012.6
00 18.04 З 3 20 км 9/0
[Ac trans Ci fib]
-4.0 -19.1 30 -8 -8 1023.6 1011.4
03 18.04 З 2 50 км 4/0
[Ac trans Ci fib]
-1.3 -17.9 27 -4 -2 1023.6 1011.6 -4.2
06 18.04 З 6-13
{14}
50 км 5/1 1000 м
[Sc Ac lent Ci fib]
+2.6 -12.8 31 -2 0 1023.3 1011.5
09 18.04 СЗ 6-11
{13}
50 км 4/1 1000 м
[Sc Ci fib]
+4.8 -10.7 32 +1 +4 1023.7 1011.9
12 18.04 З 5-10
{12}
50 км 4/4 600 м
[Cu Sc]
+4.9 -12.4 27 +1 +3 1023.6 1011.9
15 18.04 З 2
{11}
50 км 4/4 1000 м
[Sc]
+4.1 -11.9 30 +2 +2 1023.0 1011.2 +5.4
18 18.04 штиль 0 20 км 3/3 1000 м
[Sc Ci fib]
-2.1 -10.3 53 -3 -3 1023.1 1011.0
21 18.04 Ю 1 10 км 8/8 1000 м
[Sc]
-1.9 -7.3 67 -4 -4 1022.9 1010.8
00 19.04 З 4 20 км 9/9 600 м
[Cb cap]
+1.6 -5.1 61 -3 -3 1022.1 1010.2
03 19.04 З 3 50 км 9/9 600 м
[Cb cap]
+2.3 -4.9 59 -1 -1 1021.3 1009.5 -2.8
06 19.04 З 4 50 км 9/9 1380 м
[Sc]
+4.5 -6.1 46 +1 +1 1019.8 1008.0
09 19.04 СЗ 4
{10}
50 км 9/9 1000 м
[Sc]
+5.8 -6.4 41 +3 +3 1019.4 1007.7
12 19.04 З 3
{10}
50 км 9/9 1000 м
[Sc]
+6.1 -6.2 41 +4 +4 1018.8 1007.1
15 19.04 З 3
{10}
50 км 9/9 600 м
[Cb cap]
+4.2 -4.3 54 +1 +1 1018.8 1007.1 +6.3
18 19.04 З 3 10 км 9/9 600 м
[Cb cap]
+3.3 -4.0 59 -0 -0 1018.9 1007.1
21 19.04 штиль 0 20 км 9/9 600 м
[Cb cap]
-0.2 -4.0 76 -1 -1 1019.3 1007.4
00 20.04 СЗ 1 50 км 9/8 600 м
[Cb cap Ac trans]
+1.9 -3.5 67 +1 +1 1019.4 1007.6
03 20.04 СЗ 1 50 км 9/4 1000 м
[Sc Ac trans Ci fib]
+3.8 -3.2 60 +3 +4 1020.0 1008.2 -0.5
06 20.04 С 2 50 км 9/3 1000 м
[Sc Ac trans Ci fib]
+6.5 -4.5 45 +5 +8 1020.5 1008.8
09 20.04 СЗ 3 50 км 9/9 600 м
[Cb cap]
+8.5 -5.3 37 +7 +7 1020.3 1008.7
12 20.04 СЗ 3
{10}
50 км в посл. час ливневой дождь 9/9 600 м
[Cb cap]
+8.1 -4.9 39 +6 +6 1020.8 1009.2
15 20.04 СЗ 3 50 км 8/8 600 м
[Cb cap]
+6.6 -3.8 47 +4 +4 1021.1 1009.4 +9.6 0.0
18 20.04 штиль 0 20 км 9/0
[Ac trans Ci fib]
+0.1 -4.4 72 -1 -1 1021.8 1009.8
21 20.04 З 1 20 км 6/0
[Ac trans Ci fib]
+2.9 -3.4 63 +2 +2 1021.2 1009.4
00 21.04 СЗ 1 50 км 9/9 600 м
[Cb cap]
+0.8 -3.5 73 -1 -1 1020.3 1008.4
03 21.04 ЮЗ 3 50 км 9/9 600 м
[Cb cap]
+4.9 -3.1 56 +2 +2 1018.3 1006.6 -1.2
06 21.04 З 3
{12}
50 км {ливн. осадки} 9/8 600 м
[Cb cap Ac trans]
+7.5 -4.5 42 +5 +6 1016.8 1005.2
09 21.04 СЗ 5
{12}
45 км в посл. час ливневой дождь 10/10 600 м
[Cb cap]
+6.5 -2.3 53 +3 +3 1017.5 1005.9
12 21.04 СЗ 2
{11}
50 км в посл. час ливневой дождь 9/9 600 м
[Cb cap]
+8.8 -4.9 38 +8 +8 1016.8 1005.2
15 21.04 СЗ 2 50 км в посл. час ливневой дождь 9/9 600 м
[Cb cap]
+7.4 -3.8 45 +6 +6 1017.1 1005.5 +9.4 0.0
18 21.04 З 2 10 км {ливн. осадки} 10/10 600 м
[Cb cap]
+6.0 -1.4 59 +4 +4 1018.0 1006.3
21 21.04 ЮЗ 1 10 км 10/10 600 м
[Cb cap]
+4.6 -1.1 66 +4 +4 1017.8 1006.1
00 22.04 штиль 0 50 км 9/9 600 м
[Cb cap]
+3.9 -1.2 69 +3 +3 1017.5 1005.8
03 22.04 З 1 50 км 9/8 1000 м
[Sc Ci fib]
+7.0 +0.1 61 +6 +7 1017.0 1005.4 +3.5
06 22.04 З 2 50 км 9/9 600 м
[Cb cap]
+10.2 -0.8 46 +9 +10 1016.0 1004.5

 

Местоположение метеостанции Ивдель (Свердловская область, Россия): широта 60.68 долгота 60.45 высота над уровнем моря 94 м.

В архиве по умолчанию представлена погода в Ивделе за последнюю неделю. Архивные данные за месяц целиком и за предыдущие месяцы, начиная с января 2011 года, Вы можете получить, выбрав интересующий диапазон дат из раскрывающегося списка и нажав кнопку "Ввод!".


*Определитесь, кто Вы:
робот инопланетянин человек

Внимание! Время в таблицах - всемирное. Для получения местного времени необходимо прибавить поправку, которая равна 5 ч.

Смотрите также архив погоды в соседних городах и на ближайших метеорологических станциях:

Погода в Североуральске (Свердловская область, Россия) (56 км)
Погода в Бурмантово (Свердловская область, Россия) (67 км)
Погода в Атымье (Свердловская область, Россия) (103 км)
Погода в Карпинске (Свердловская область, Россия) (106 км)
Погода в Серове (Свердловская область, Россия) (120 км)
Погода в Кытлыме (Свердловская область, Россия) (148 км)
Погода в Югорске (Ханты-Мансийский АО, Россия) (172 км)
Погода в Гарях (Свердловская область, Россия) (174 км)
Погода в Агирише (Ханты-Мансийский АО, Россия) (195 км)
Погода в Няксимволе (Ханты-Мансийский АО, Россия) (196 км)

Пояснения к столбцам:

Ветер - указаны скорость ветра в м/с - средняя за 10 мин, порывы в срок и между сроками (в фигурных скобках) и направление, откуда дует ветер: С - северный, СВ - северо-восточный, В - восточный, ЮВ - юго-восточный, Ю - южный, ЮЗ - юго-западный, З - западный, СЗ - северо-западный.
Видимость - горизонтальная дальность видимости в метрах или километрах. При видимости от 1 до 10 км при отсутствии осадков обычно наблюдается дымка, при ухудшении видимости до 1 км и менее - туман. В сухую погоду видимость может ухудшаться дымом, пылью или мглою.
Явления - указаны атмосферные явления, наблюдавшиеся в срок или в последний час перед сроком; фигурными скобками обозначены явления, наблюдавшиеся между сроками (за 1-3 часа до срока); квадратными скобками обозначены град или гололедные отложения с указанием их диаметра в мм.
Облачность - указаны через наклонную черту общая и нижняя облачность в баллах и высота нижней границы облаков в метрах; квадратными скобками обозначены формы облаков: Ci - перистые, Cs - перисто-слоистые, Cc - перисто-кучевые, Ac - высококучевые, As - высокослоистые, Sc - слоисто-кучевые, Ns - слоисто-дождевые, Cu - кучевые, Cb - кучево-дождевые. Подробнее классификацию облаков см. в Атласе облаков (PDF).
T - Температура воздуха - температура, измеренная на высоте 2 м над землей.
Td - Температура точки росы - температура, при понижении до которой содержащийся в воздухе водяной пар достигнет насыщения.
f - Относительная влажность воздуха - влажноcть воздуха, измеренная на высоте 2 м над землей.
Te - Эффективная температура - температура, которую ощущает одетый по сезону человек в тени. Характеристика душности погоды. При расчете учитывается влияние влажности воздуха и скорости ветра на теплоощущения человека.
Tes - Эффективная температура на солнце - температура, которую ощущает человек, с поправкой на солнечный нагрев. Характеристика знойности погоды. Зависит от высоты солнца над горизонтом, облачности и скорости ветра. Ночью, в пасмурную погоду, а также при ветре 12 м/с и более поправка равна нулю.
P - Атмосферное давление - приведенное к уровню моря атмосферное давление.
Po - Атмосферное давление - измеренное на уровне метеостанции атмосферное давление.
Tmin - Минимальная температура - минимум температуры воздуха на высоте 2 м над землей.
Tmax - Максимальная температура - максимум температуры воздуха на высоте 2 м над землей.
R - Количество осадков - Количество выпавших осадков за период времени, мм. При наведении курсора мыши на число - период времени, за который выпало указанное количество осадков.
R24 - Количество осадков - Количество выпавших осадков за 24 часа, мм.
S - Снежный покров - Высота снежного покрова, см. При наведении курсора мыши на число - состояние снежного покрова и степень покрытия местности в баллах.